Regional Weather Roundup
Issued by NWS

Current Version | Previous Version | Text Only | Print | Product List | Glossary On
Versions: 1 2 3 4 5 6 7 8 9 10 11 12 13 14 15 16 17 18 19 20 21 22 23 24 25 26 27 28 29 30 31 32 33 34 35 36 37 38 39 40 41 42 43 44 45 46 47 48 49 50
000
ASUS42 KKEY 310910
RWRKEY

FLORIDA REGIONAL WEATHER ROUNDUP FOR THE FLORIDA KEYS
NATIONAL WEATHER SERVICE KEY WEST FLORIDA
400 AM EST SAT JAN 31 2015

...SOUTH FLORIDA AND THE KEYS...

CITY           SKY/WX    TMP DP  RH WIND       PRES   REMARKS
FORT MYERS     PTCLDY    54  48  80 NE8       30.19S
SW REGIONAL AP PTCLDY    53  50  89 NE7       30.20R
NAPLES         CLEAR     57  52  83 NE9       30.17S
MIAMI          MOCLDY    63  52  67 N8        30.15S
WEST KENDALL   PTCLDY    60  56  86 N9        30.15S
HOMESTEAD      PTCLDY    59  56  90 NW7       30.14S
MARATHON       CLEAR     63  61  93 N8        30.14S
BOCA CHICA NAS CLEAR     65  61  87 N12       30.15S
KEY WEST INTL  CLEAR     64  61  90 NE10      30.15S

...INTERNATIONAL WEATHER...

CITY           SKY/WX    TMP DP  RH WIND       PRES   REMARKS
NASSAU BAHAMAS LGT RAIN  70  63  78 N12       30.12R
CANCUN MEXICO  CLEAR     63  57  82 CALM      30.11F
COZUMEL MEXICO   N/A    N/A N/A N/A MISG        N/A

ADJACENT COASTAL WATERS...

STATION/POSITION TIME  SKY/WX   TEMP    WIND        PRES    WAVE
                                AIR SEA DIR/SP/G            HT/PER
                 (UTC)          (F)     (DEG/KT/KT) (MB)    (FT/S)
PULASKI SHOAL LI NOT AVBL
SAND KEY         NOT AVBL
SOMBRERO KEY     NOT AVBL
LONG KEY         NOT AVBL
MOLASSES REEF    NOT AVBL
FOWEY ROCKS      NOT AVBL
Buoy 42080       NOT AVBL

$$



USA.gov is the U.S. government's official web portal to all federal, state and local government web resources and services.